Location: Bailen
(14.1842°N, 120.7958°E)
Time: 17:47:16
(UTC+00:00)

Cosmos 1943 Rocket - Pass Details

Date: 12 January 2026
Orbit: 811 x 842 km, 71.0° (Epoch: 17 February)

Event Time Altitude Azimuth Distance (km) Brightness Sun altitude
Rises 21:20:51 0° 203° (SSW) 3,341 5.3 -15.3°
Reaches altitude 10° 21:23:18 10° 207° (SSW) 2,405 4.5 -14.7°
Maximum altitude 21:28:44 61° 287° (WNW) 919 2.1 -13.5°
Drops below altitude 10° 21:34:08 10° 7° (N) 2,393 4.4 -12.3°
Sets 21:36:35 0° 11° (N) 3,323 5.2 -11.7°
